| time (UTC) | temp F | wind direction | speed MPH | gust MPH | rain 1hr in | rain 24hr in | rain mn in | humidity % | barometer mb |
| 20260831171002 | 56 | 246 | 2.0 | 10.0 | 0.00 | 0.00 | 0.00 | 87 | 1012.5 |
| 20260831170502 | 56 | 248 | 2.0 | 10.0 | 0.00 | 0.00 | 0.00 | 87 | 1012.5 |
| 20260831170023 | 56 | 249 | 2.0 | 9.0 | 0.00 | 0.00 | 0.00 | 87 | 1012.5 |
| 20260831165502 | 56 | 251 | 3.0 | 9.0 | 0.00 | 0.00 | 0.00 | 88 | 1012.5 |
| 20260831165023 | 56 | 245 | 2.0 | 9.0 | 0.00 | 0.00 | 0.00 | 88 | 1012.5 |
| 20260831164502 | 56 | 243 | 2.0 | 9.0 | 0.00 | 0.00 | 0.00 | 88 | 1012.5 |
| 20260831164023 | 56 | 248 | 2.0 | 9.0 | 0.00 | 0.00 | 0.00 | 88 | 1012.5 |
| 20260831163502 | 56 | 245 | 2.0 | 8.0 | 0.00 | 0.00 | 0.00 | 89 | 1012.5 |
| 20260831163002 | 56 | 240 | 2.0 | 9.0 | 0.00 | 0.00 | 0.00 | 89 | 1012.5 |
| 20260831162503 | 56 | 241 | 2.0 | 9.0 | 0.00 | 0.00 | 0.00 | 89 | 1012.5 |
| 20260831162002 | 56 | 245 | 3.0 | 6.0 | 0.00 | 0.00 | 0.00 | 89 | 1012.5 |
| 20260831161502 | 56 | 254 | 3.0 | 9.0 | 0.00 | 0.00 | 0.00 | 89 | 1012.5 |
| 20260831161002 | 55 | 245 | 3.0 | 9.0 | 0.00 | 0.00 | 0.00 | 89 | 1012.5 |
| 20260831160502 | 55 | 235 | 2.0 | 8.0 | 0.00 | 0.00 | 0.00 | 89 | 1012.5 |
| 20260831160002 | 55 | 228 | 2.0 | 7.0 | 0.00 | 0.00 | 0.00 | 90 | 1012.5 |
| 20260831155502 | 55 | 228 | 2.0 | 7.0 | 0.00 | 0.00 | 0.00 | 90 | 1012.5 |
| 20260831155002 | 55 | 230 | 1.0 | 5.0 | 0.00 | 0.00 | 0.00 | 90 | 1012.5 |
| 20260831154502 | 55 | 231 | 1.0 | 5.0 | 0.00 | 0.00 | 0.00 | 90 | 1012.5 |
| 20260831154002 | 55 | 236 | 2.0 | 6.0 | 0.00 | 0.00 | 0.00 | 90 | 1012.5 |
| 20260831153523 | 55 | 230 | 2.0 | 6.0 | 0.00 | 0.00 | 0.00 | 90 | 1012.5 |
| 20260831153002 | 55 | 234 | 1.0 | 6.0 | 0.00 | 0.00 | 0.00 | 91 | 1012.5 |
| 20260831152523 | 55 | 239 | 1.0 | 6.0 | 0.00 | 0.00 | 0.00 | 91 | 1012.5 |
| 20260831152002 | 55 | 240 | 2.0 | 8.0 | 0.00 | 0.00 | 0.00 | 91 | 1012.5 |
| 20260831151524 | 55 | 251 | 2.0 | 8.0 | 0.00 | 0.00 | 0.00 | 91 | 1012.5 |
| 20260831151024 | 55 | 250 | 2.0 | 7.0 | 0.00 | 0.00 | 0.00 | 91 | 1012.5 |
| 20260831150502 | 55 | 246 | 3.0 | 9.0 | 0.00 | 0.00 | 0.00 | 91 | 1012.5 |
| 20260831150003 | 55 | 242 | 2.0 | 9.0 | 0.00 | 0.00 | 0.00 | 92 | 1012.5 |
| 20260831145502 | 55 | 239 | 2.0 | 7.0 | 0.00 | 0.00 | 0.00 | 92 | 1012.5 |
| 20260831145002 | 55 | 249 | 2.0 | 7.0 | 0.00 | 0.00 | 0.00 | 92 | 1012.5 |
| 20260831144502 | 54 | 247 | 2.0 | 7.0 | 0.00 | 0.00 | 0.00 | 92 | 1012.5 |
| 20260831144002 | 54 | 229 | 2.0 | 4.0 | 0.00 | 0.00 | 0.00 | 92 | 1012.5 |
| 20260831143523 | 54 | 223 | 2.0 | 7.0 | 0.00 | 0.00 | 0.00 | 92 | 1012.5 |
| 20260831143002 | 54 | 235 | 2.0 | 8.0 | 0.00 | 0.00 | 0.00 | 92 | 1012.5 |
| 20260831142502 | 54 | 239 | 2.0 | 7.0 | 0.00 | 0.00 | 0.00 | 92 | 1012.5 |
| 20260831142023 | 54 | 241 | 2.0 | 7.0 | 0.00 | 0.00 | 0.00 | 92 | 1012.5 |
| 20260831141502 | 54 | 243 | 2.0 | 5.0 | 0.00 | 0.00 | 0.00 | 92 | 1012.5 |
| 20260831141002 | 54 | 246 | 2.0 | 6.0 | 0.00 | 0.00 | 0.00 | 92 | 1012.5 |
| 20260831140502 | 54 | 252 | 2.0 | 6.0 | 0.00 | 0.00 | 0.00 | 92 | 1012.5 |
| 20260831140003 | 54 | 256 | 1.0 | 5.0 | 0.00 | 0.00 | 0.00 | 92 | 1012.5 |
| 20260831135523 | 54 | 254 | 2.0 | 5.0 | 0.00 | 0.00 | 0.00 | 93 | 1012.5 |
| 20260831135002 | 54 | 257 | 2.0 | 6.0 | 0.00 | 0.00 | 0.00 | 92 | 1012.5 |
| 20260831134502 | 54 | 254 | 2.0 | 6.0 | 0.00 | 0.00 | 0.00 | 92 | 1012.5 |
| 20260831134002 | 54 | 246 | 2.0 | 6.0 | 0.00 | 0.00 | 0.00 | 93 | 1012.5 |
| 20260831133523 | 54 | 251 | 2.0 | 7.0 | 0.00 | 0.00 | 0.00 | 93 | 1012.5 |
| 20260831133002 | 54 | 253 | 2.0 | 7.0 | 0.00 | 0.00 | 0.00 | 93 | 1012.5 |
| 20260831132502 | 54 | 247 | 2.0 | 7.0 | 0.00 | 0.00 | 0.00 | 93 | 1012.5 |
| 20260831132002 | 54 | 246 | 2.0 | 7.0 | 0.00 | 0.00 | 0.00 | 93 | 1012.5 |
| 20260831131503 | 54 | 252 | 2.0 | 6.0 | 0.00 | 0.00 | 0.00 | 93 | 1012.5 |
| 20260831131003 | 54 | 245 | 2.0 | 5.0 | 0.00 | 0.00 | 0.00 | 93 | 1012.5 |
| 20260831130502 | 54 | 239 | 2.0 | 5.0 | 0.00 | 0.00 | 0.00 | 93 | 1012.5 |
| 20260831130002 | 54 | 245 | 2.0 | 4.0 | 0.00 | 0.00 | 0.00 | 93 | 1012.5 |
| 20260831125502 | 54 | 249 | 2.0 | 4.0 | 0.00 | 0.00 | 0.00 | 93 | 1012.5 |
| 20260831125024 | 54 | 247 | 1.0 | 4.0 | 0.00 | 0.00 | 0.00 | 93 | 1012.5 |
| 20260831124502 | 54 | 245 | 2.0 | 7.0 | 0.00 | 0.00 | 0.00 | 93 | 1012.5 |
| 20260831124002 | 54 | 247 | 3.0 | 7.0 | 0.00 | 0.00 | 0.00 | 93 | 1012.5 |
| 20260831123502 | 54 | 251 | 2.0 | 7.0 | 0.00 | 0.00 | 0.00 | 93 | 1012.5 |
| 20260831123023 | 54 | 263 | 1.0 | 6.0 | 0.00 | 0.00 | 0.00 | 93 | 1012.5 |
| 20260831122503 | 54 | 263 | 1.0 | 4.0 | 0.00 | 0.00 | 0.00 | 93 | 1012.5 |
| 20260831122003 | 54 | 252 | 2.0 | 8.0 | 0.00 | 0.00 | 0.00 | 92 | 1012.5 |
| 20260831121502 | 54 | 247 | 2.0 | 8.0 | 0.00 | 0.00 | 0.00 | 92 | 1012.5 |
| 20260831121002 | 54 | 246 | 2.0 | 8.0 | 0.00 | 0.00 | 0.00 | 92 | 1012.5 |
| 20260831120524 | 54 | 252 | 2.0 | 8.0 | 0.00 | 0.00 | 0.00 | 92 | 1012.5 |
| 20260831120023 | 54 | 248 | 3.0 | 8.0 | 0.00 | 0.00 | 0.00 | 92 | 1012.5 |
| 20260831115502 | 54 | 247 | 2.0 | 7.0 | 0.00 | 0.00 | 0.00 | 92 | 1012.5 |
| 20260831115002 | 54 | 251 | 2.0 | 7.0 | 0.00 | 0.00 | 0.00 | 93 | 1012.5 |
| 20260831114502 | 54 | 251 | 2.0 | 8.0 | 0.00 | 0.00 | 0.00 | 93 | 1012.5 |
| 20260831114002 | 54 | 252 | 2.0 | 8.0 | 0.00 | 0.00 | 0.00 | 93 | 1012.5 |
| 20260831113523 | 54 | 253 | 2.0 | 8.0 | 0.00 | 0.00 | 0.00 | 93 | 1012.5 |
| 20260831113002 | 54 | 254 | 3.0 | 8.0 | 0.00 | 0.00 | 0.00 | 93 | 1012.5 |
| 20260831112502 | 55 | 251 | 3.0 | 8.0 | 0.00 | 0.00 | 0.00 | 93 | 1012.5 |
| 20260831112023 | 55 | 254 | 3.0 | 8.0 | 0.00 | 0.00 | 0.00 | 93 | 1012.5 |
| 20260831111503 | 54 | 259 | 3.0 | 8.0 | 0.00 | 0.00 | 0.00 | 93 | 1012.5 |
| 20260831111002 | 54 | 254 | 3.0 | 8.0 | 0.00 | 0.00 | 0.00 | 92 | 1012.5 |
| 20260831110523 | 55 | 250 | 2.0 | 7.0 | 0.00 | 0.00 | 0.00 | 92 | 1012.5 |
| 20260831110023 | 55 | 253 | 2.0 | 7.0 | 0.00 | 0.00 | 0.00 | 92 | 1012.5 |
| 20260831105503 | 55 | 253 | 2.0 | 7.0 | 0.00 | 0.00 | 0.00 | 92 | 1012.5 |
| 20260831105002 | 55 | 254 | 2.0 | 6.0 | 0.00 | 0.00 | 0.00 | 92 | 1012.5 |
| 20260831104524 | 55 | 246 | 2.0 | 6.0 | 0.00 | 0.00 | 0.00 | 92 | 1012.5 |
| 20260831104002 | 55 | 239 | 2.0 | 6.0 | 0.00 | 0.00 | 0.00 | 92 | 1012.5 |
| 20260831103502 | 55 | 238 | 1.0 | 6.0 | 0.00 | 0.00 | 0.00 | 92 | 1012.5 |
| 20260831103002 | 55 | 235 | 1.0 | 4.0 | 0.00 | 0.00 | 0.00 | 92 | 1012.5 |
| 20260831102503 | 55 | 234 | 1.0 | 3.0 | 0.00 | 0.00 | 0.00 | 92 | 1012.5 |
| 20260831102002 | 55 | 233 | 1.0 | 4.0 | 0.00 | 0.00 | 0.00 | 92 | 1012.5 |
| 20260831101502 | 55 | 236 | 1.0 | 4.0 | 0.00 | 0.00 | 0.00 | 92 | 1012.5 |
| 20260831101002 | 55 | 238 | 1.0 | 3.0 | 0.00 | 0.00 | 0.00 | 92 | 1012.5 |
| 20260831100502 | 55 | 238 | 1.0 | 3.0 | 0.00 | 0.00 | 0.00 | 92 | 1012.5 |
| 20260831100003 | 55 | 237 | 1.0 | 4.0 | 0.00 | 0.00 | 0.00 | 92 | 1012.5 |
| 20260831095503 | 55 | 240 | 1.0 | 4.0 | 0.00 | 0.00 | 0.00 | 92 | 1012.5 |
| 20260831095002 | 55 | 245 | 1.0 | 4.0 | 0.00 | 0.00 | 0.00 | 92 | 1012.5 |
| 20260831094502 | 55 | 246 | 1.0 | 3.0 | 0.00 | 0.00 | 0.00 | 92 | 1012.5 |
| 20260831094002 | 55 | 244 | 1.0 | 3.0 | 0.00 | 0.00 | 0.00 | 92 | 1012.5 |
| 20260831093502 | 55 | 243 | 1.0 | 3.0 | 0.00 | 0.00 | 0.00 | 92 | 1012.5 |
| 20260831093002 | 55 | 241 | 1.0 | 3.0 | 0.00 | 0.00 | 0.00 | 92 | 1012.5 |
| 20260831092503 | 55 | 242 | 1.0 | 4.0 | 0.00 | 0.00 | 0.00 | 92 | 1012.5 |
| 20260831092002 | 55 | 250 | 1.0 | 4.0 | 0.00 | 0.00 | 0.00 | 92 | 1012.5 |
| 20260831091502 | 55 | 256 | 1.0 | 4.0 | 0.00 | 0.00 | 0.00 | 91 | 1012.5 |
| 20260831091002 | 55 | 269 | 1.0 | 4.0 | 0.00 | 0.00 | 0.00 | 91 | 1012.5 |
| 20260831090502 | 55 | 289 | 0.0 | 2.0 | 0.00 | 0.00 | 0.00 | 91 | 1012.5 |
| 20260831090003 | 55 | 291 | 0.0 | 3.0 | 0.00 | 0.00 | 0.00 | 92 | 1012.5 |
| 20260831085503 | 55 | 270 | 0.0 | 3.0 | 0.00 | 0.00 | 0.00 | 91 | 1012.5 |
| 20260831085023 | 55 | 254 | 1.0 | 3.0 | 0.00 | 0.00 | 0.00 | 91 | 1012.5 |
| 20260831084502 | 55 | 254 | 0.0 | 3.0 | 0.00 | 0.00 | 0.00 | 91 | 1012.5 |
| 20260831084003 | 55 | 256 | 0.0 | 2.0 | 0.00 | 0.00 | 0.00 | 92 | 1012.5 |
| 20260831083502 | 55 | 253 | 0.0 | 4.0 | 0.00 | 0.00 | 0.00 | 92 | 1012.5 |
| 20260831083002 | 55 | 253 | 0.0 | 4.0 | 0.00 | 0.00 | 0.00 | 91 | 1012.5 |
| 20260831082523 | 55 | 268 | 0.0 | 3.0 | 0.00 | 0.00 | 0.00 | 92 | 1012.5 |
| 20260831081502 | 55 | 268 | 0.0 | 3.0 | 0.00 | 0.00 | 0.00 | 91 | 1012.7 |
| 20260831081002 | 55 | 264 | 0.0 | 3.0 | 0.00 | 0.00 | 0.00 | 91 | 1012.7 |
| 20260831080024 | 55 | 0 | 0.0 | 0.0 | 0.00 | 0.00 | 0.00 | 91 | 1012.8 |
| 20260831075503 | 55 | 344 | 0.0 | 2.0 | 0.00 | 0.00 | 0.00 | 91 | 1012.8 |
| 20260831075003 | 55 | 344 | 0.0 | 2.0 | 0.00 | 0.00 | 0.00 | 91 | 1012.8 |
| 20260831074502 | 55 | 338 | 0.0 | 3.0 | 0.00 | 0.00 | 0.00 | 91 | 1012.8 |
| 20260831074003 | 55 | 337 | 0.0 | 3.0 | 0.00 | 0.00 | 0.00 | 91 | 1012.8 |
| 20260831073503 | 55 | 328 | 0.0 | 5.0 | 0.00 | 0.00 | 0.00 | 91 | 1012.8 |
| 20260831073002 | 55 | 319 | 0.0 | 5.0 | 0.00 | 0.00 | 0.00 | 91 | 1012.8 |
| 20260831072523 | 55 | 294 | 0.0 | 2.0 | 0.00 | 0.00 | 0.00 | 91 | 1012.8 |
| 20260831072003 | 56 | 284 | 0.0 | 2.0 | 0.00 | 0.00 | 0.00 | 91 | 1012.8 |
| 20260831071523 | 55 | 280 | 0.0 | 2.0 | 0.00 | 0.00 | 0.00 | 91 | 1012.8 |
| 20260831071002 | 55 | 245 | 0.0 | 3.0 | 0.00 | 0.00 | 0.00 | 91 | 1012.8 |
| 20260831070502 | 55 | 242 | 0.0 | 3.0 | 0.00 | 0.00 | 0.00 | 90 | 1012.8 |
| 20260831070005 | 55 | 245 | 0.0 | 3.0 | 0.00 | 0.00 | 0.00 | 90 | 1012.8 |
| 20260831065502 | 55 | 248 | 0.0 | 3.0 | 0.00 | 0.00 | 0.00 | 90 | 1012.8 |
| 20260831065002 | 55 | 253 | 0.0 | 2.0 | 0.00 | 0.00 | 0.00 | 90 | 1012.8 |
| 20260831064503 | 55 | 268 | 1.0 | 3.0 | 0.00 | 0.00 | 0.00 | 90 | 1012.8 |
| 20260831064002 | 55 | 283 | 0.0 | 3.0 | 0.00 | 0.00 | 0.00 | 90 | 1012.8 |
| 20260831063502 | 55 | 313 | 0.0 | 2.0 | 0.00 | 0.00 | 0.00 | 89 | 1012.6 |
| 20260831063002 | 55 | 316 | 0.0 | 1.0 | 0.00 | 0.00 | 0.00 | 89 | 1012.6 |
| 20260831062503 | 55 | 323 | 0.0 | 1.0 | 0.00 | 0.00 | 0.00 | 89 | 1012.6 |
| 20260831062023 | 55 | 323 | 0.0 | 1.0 | 0.00 | 0.00 | 0.00 | 89 | 1012.6 |
| 20260831061502 | 55 | 323 | 0.0 | 3.0 | 0.00 | 0.00 | 0.00 | 89 | 1012.6 |
| 20260831061002 | 55 | 323 | 0.0 | 3.0 | 0.00 | 0.00 | 0.00 | 88 | 1012.6 |
| 20260831060502 | 55 | 321 | 0.0 | 1.0 | 0.00 | 0.00 | 0.00 | 88 | 1012.6 |
| 20260831060003 | 55 | 321 | 0.0 | 1.0 | 0.00 | 0.00 | 0.00 | 88 | 1012.6 |
| 20260831055523 | 55 | 321 | 0.0 | 1.0 | 0.00 | 0.00 | 0.00 | 88 | 1012.6 |
| 20260831055004 | 55 | 320 | 0.0 | 1.0 | 0.00 | 0.00 | 0.00 | 87 | 1012.6 |
| 20260831054502 | 55 | 319 | 0.0 | 3.0 | 0.00 | 0.00 | 0.00 | 87 | 1012.6 |
| 20260831054002 | 55 | 317 | 0.0 | 3.0 | 0.00 | 0.00 | 0.00 | 87 | 1012.6 |
| 20260831053503 | 56 | 315 | 0.0 | 2.0 | 0.00 | 0.00 | 0.00 | 86 | 1012.8 |
| 20260831053003 | 56 | 314 | 0.0 | 2.0 | 0.00 | 0.00 | 0.00 | 86 | 1012.8 |
| 20260831052502 | 56 | 313 | 0.0 | 1.0 | 0.00 | 0.00 | 0.00 | 86 | 1012.8 |
| 20260831052003 | 56 | 313 | 0.0 | 1.0 | 0.00 | 0.00 | 0.00 | 85 | 1012.8 |
| 20260831051503 | 56 | 313 | 0.0 | 1.0 | 0.00 | 0.00 | 0.00 | 85 | 1012.8 |
| 20260831051024 | 56 | 313 | 0.0 | 1.0 | 0.00 | 0.00 | 0.00 | 85 | 1012.8 |
| 20260831050502 | 56 | 313 | 0.0 | 2.0 | 0.00 | 0.00 | 0.00 | 85 | 1012.8 |
| 20260831050003 | 56 | 313 | 0.0 | 1.0 | 0.00 | 0.00 | 0.00 | 84 | 1012.8 |
| 20260831045502 | 57 | 0 | 0.0 | 0.0 | 0.00 | 0.00 | 0.00 | 84 | 1012.8 |
| 20260831045003 | 57 | 0 | 0.0 | 0.0 | 0.00 | 0.00 | 0.00 | 84 | 1012.8 |
| 20260831044503 | 57 | 0 | 0.0 | 0.0 | 0.00 | 0.00 | 0.00 | 83 | 1012.8 |
| 20260831044002 | 57 | 0 | 0.0 | 0.0 | 0.00 | 0.00 | 0.00 | 83 | 1012.8 |
| 20260831043503 | 57 | 0 | 0.0 | 0.0 | 0.00 | 0.00 | 0.00 | 83 | 1012.2 |
| 20260831043003 | 57 | 313 | 0.0 | 1.0 | 0.00 | 0.00 | 0.00 | 82 | 1012.2 |
| 20260831042502 | 57 | 313 | 0.0 | 1.0 | 0.00 | 0.00 | 0.00 | 82 | 1012.2 |
| 20260831042003 | 58 | 313 | 0.0 | 1.0 | 0.00 | 0.00 | 0.00 | 82 | 1012.2 |
| 20260831041503 | 58 | 312 | 0.0 | 2.0 | 0.00 | 0.00 | 0.00 | 81 | 1012.2 |
| 20260831041003 | 58 | 312 | 0.0 | 2.0 | 0.00 | 0.00 | 0.00 | 81 | 1012.2 |
| 20260831040502 | 58 | 311 | 0.0 | 1.0 | 0.00 | 0.00 | 0.00 | 81 | 1012.2 |
| 20260831040003 | 58 | 311 | 0.0 | 1.0 | 0.00 | 0.00 | 0.00 | 80 | 1012.2 |
| 20260831035524 | 59 | 311 | 0.0 | 1.0 | 0.00 | 0.00 | 0.00 | 80 | 1012.2 |
| 20260831035004 | 59 | 311 | 0.0 | 1.0 | 0.00 | 0.00 | 0.00 | 80 | 1012.2 |
| 20260831034502 | 59 | 0 | 0.0 | 0.0 | 0.00 | 0.00 | 0.00 | 79 | 1012.2 |
| 20260831034005 | 60 | 311 | 0.0 | 1.0 | 0.00 | 0.00 | 0.00 | 79 | 1012.2 |
| 20260831033503 | 60 | 311 | 0.0 | 1.0 | 0.00 | 0.00 | 0.00 | 78 | 1011.9 |
| 20260831033003 | 60 | 311 | 0.0 | 1.0 | 0.00 | 0.00 | 0.00 | 78 | 1011.9 |
| 20260831032503 | 60 | 311 | 0.0 | 1.0 | 0.00 | 0.00 | 0.00 | 77 | 1011.9 |
| 20260831032003 | 61 | 311 | 0.0 | 1.0 | 0.00 | 0.00 | 0.00 | 77 | 1011.9 |
| 20260831031504 | 61 | 311 | 0.0 | 1.0 | 0.00 | 0.00 | 0.00 | 76 | 1011.9 |
| 20260831031003 | 61 | 311 | 0.0 | 1.0 | 0.00 | 0.00 | 0.00 | 76 | 1011.9 |
| 20260831030503 | 61 | 311 | 0.0 | 1.0 | 0.00 | 0.00 | 0.00 | 75 | 1011.9 |
| 20260831030004 | 62 | 310 | 0.0 | 2.0 | 0.00 | 0.00 | 0.00 | 74 | 1011.9 |
| 20260831025524 | 62 | 309 | 0.0 | 2.0 | 0.00 | 0.00 | 0.00 | 74 | 1011.9 |
| 20260831025003 | 62 | 309 | 0.0 | 2.0 | 0.00 | 0.00 | 0.00 | 73 | 1011.9 |
| 20260831024503 | 62 | 310 | 0.0 | 3.0 | 0.00 | 0.00 | 0.00 | 72 | 1011.9 |
| 20260831024003 | 63 | 317 | 1.0 | 3.0 | 0.00 | 0.00 | 0.00 | 72 | 1011.9 |
| 20260831023503 | 63 | 326 | 1.0 | 3.0 | 0.00 | 0.00 | 0.00 | 71 | 1011.9 |
| 20260831023003 | 63 | 323 | 1.0 | 4.0 | 0.00 | 0.00 | 0.00 | 71 | 1011.9 |
| 20260831022504 | 64 | 320 | 1.0 | 4.0 | 0.00 | 0.00 | 0.00 | 70 | 1011.9 |
| 20260831022003 | 64 | 331 | 1.0 | 5.0 | 0.00 | 0.00 | 0.00 | 70 | 1011.9 |
| 20260831021503 | 64 | 326 | 1.0 | 5.0 | 0.00 | 0.00 | 0.00 | 69 | 1011.9 |
| 20260831021002 | 64 | 322 | 1.0 | 5.0 | 0.00 | 0.00 | 0.00 | 69 | 1011.9 |
| 20260831020524 | 65 | 324 | 2.0 | 7.0 | 0.00 | 0.00 | 0.00 | 69 | 1011.9 |
| 20260831020003 | 65 | 323 | 2.0 | 7.0 | 0.00 | 0.00 | 0.00 | 68 | 1011.9 |
| 20260831015503 | 66 | 320 | 2.0 | 5.0 | 0.00 | 0.00 | 0.00 | 68 | 1011.9 |
| 20260831015023 | 66 | 321 | 2.0 | 5.0 | 0.00 | 0.00 | 0.00 | 67 | 1011.9 |
| 20260831014503 | 66 | 325 | 2.0 | 8.0 | 0.00 | 0.00 | 0.00 | 66 | 1011.9 |
| 20260831014003 | 67 | 329 | 2.0 | 8.0 | 0.00 | 0.00 | 0.00 | 65 | 1011.9 |
| 20260831013503 | 68 | 328 | 1.0 | 5.0 | 0.00 | 0.00 | 0.00 | 65 | 1011.9 |
| 20260831013003 | 68 | 322 | 2.0 | 6.0 | 0.00 | 0.00 | 0.00 | 64 | 1011.9 |
| 20260831012524 | 68 | 316 | 2.0 | 6.0 | 0.00 | 0.00 | 0.00 | 64 | 1011.9 |
| 20260831012003 | 69 | 326 | 3.0 | 9.0 | 0.00 | 0.00 | 0.00 | 63 | 1011.9 |
| 20260831011524 | 70 | 330 | 2.0 | 9.0 | 0.00 | 0.00 | 0.00 | 63 | 1011.9 |
| 20260831011024 | 70 | 320 | 1.0 | 4.0 | 0.00 | 0.00 | 0.00 | 62 | 1011.9 |
| 20260831010524 | 70 | 329 | 1.0 | 6.0 | 0.00 | 0.00 | 0.00 | 62 | 1011.9 |
| 20260831010024 | 71 | 335 | 1.0 | 6.0 | 0.00 | 0.00 | 0.00 | 62 | 1011.9 |
| 20260831005503 | 71 | 341 | 1.0 | 6.0 | 0.00 | 0.00 | 0.00 | 62 | 1011.9 |
| 20260831005024 | 71 | 334 | 2.0 | 6.0 | 0.00 | 0.00 | 0.00 | 62 | 1011.9 |
| 20260831004503 | 71 | 324 | 2.0 | 6.0 | 0.00 | 0.00 | 0.00 | 61 | 1011.9 |
| 20260831004003 | 71 | 330 | 2.0 | 8.0 | 0.00 | 0.00 | 0.00 | 61 | 1012.1 |
| 20260831003502 | 72 | 335 | 3.0 | 9.0 | 0.00 | 0.00 | 0.00 | 61 | 1012.1 |
| 20260831003003 | 72 | 335 | 3.0 | 9.0 | 0.00 | 0.00 | 0.00 | 60 | 1012.1 |
| 20260831002503 | 73 | 334 | 3.0 | 8.0 | 0.00 | 0.00 | 0.00 | 59 | 1012.1 |
| 20260831002003 | 73 | 328 | 2.0 | 9.0 | 0.00 | 0.00 | 0.00 | 59 | 1012.1 |
| 20260831001524 | 73 | 332 | 2.0 | 9.0 | 0.00 | 0.00 | 0.00 | 59 | 1012.1 |
| 20260831001003 | 74 | 330 | 2.0 | 8.0 | 0.00 | 0.00 | 0.00 | 59 | 1012.1 |
| 20260831000503 | 74 | 329 | 2.0 | 7.0 | 0.00 | 0.00 | 0.00 | 59 | 1012.1 |
| 20260831000003 | 74 | 339 | 2.0 | 9.0 | 0.00 | 0.00 | 0.00 | 58 | 1012.1 |
| 20260830235503 | 74 | 333 | 3.0 | 9.0 | 0.00 | 0.00 | 0.00 | 58 | 1012.1 |
| 20260830235003 | 74 | 325 | 2.0 | 9.0 | 0.00 | 0.00 | 0.00 | 57 | 1012.1 |
| 20260830234524 | 74 | 321 | 2.0 | 9.0 | 0.00 | 0.00 | 0.00 | 57 | 1012.1 |
| 20260830234003 | 75 | 327 | 2.0 | 8.0 | 0.00 | 0.00 | 0.00 | 57 | 1013.3 |
| 20260830233503 | 75 | 335 | 2.0 | 8.0 | 0.00 | 0.00 | 0.00 | 57 | 1013.3 |
| 20260830233003 | 75 | 328 | 2.0 | 8.0 | 0.00 | 0.00 | 0.00 | 57 | 1013.3 |
| 20260830232524 | 75 | 321 | 2.0 | 8.0 | 0.00 | 0.00 | 0.00 | 57 | 1013.3 |
| 20260830232003 | 75 | 330 | 3.0 | 9.0 | 0.00 | 0.00 | 0.00 | 57 | 1013.3 |
| 20260830231524 | 75 | 330 | 2.0 | 9.0 | 0.00 | 0.00 | 0.00 | 57 | 1013.3 |
| 20260830231024 | 75 | 321 | 2.0 | 6.0 | 0.00 | 0.00 | 0.00 | 57 | 1013.3 |
| 20260830230503 | 75 | 332 | 2.0 | 8.0 | 0.00 | 0.00 | 0.00 | 58 | 1013.3 |
| 20260830230003 | 75 | 330 | 2.0 | 9.0 | 0.00 | 0.00 | 0.00 | 58 | 1013.3 |
| 20260830225503 | 75 | 324 | 3.0 | 9.0 | 0.00 | 0.00 | 0.00 | 58 | 1013.3 |
| 20260830225003 | 75 | 331 | 2.0 | 6.0 | 0.00 | 0.00 | 0.00 | 58 | 1013.3 |
| 20260830224503 | 74 | 336 | 2.0 | 6.0 | 0.00 | 0.00 | 0.00 | 59 | 1013.3 |
| 20260830224024 | 74 | 324 | 2.0 | 6.0 | 0.00 | 0.00 | 0.00 | 59 | 1013.3 |
| 20260830223524 | 74 | 315 | 2.0 | 5.0 | 0.00 | 0.00 | 0.00 | 59 | 1013.3 |
| 20260830223003 | 74 | 338 | 2.0 | 9.0 | 0.00 | 0.00 | 0.00 | 59 | 1013.3 |
| 20260830222503 | 74 | 345 | 3.0 | 10.0 | 0.00 | 0.00 | 0.00 | 59 | 1013.3 |
| 20260830222003 | 75 | 330 | 3.0 | 10.0 | 0.00 | 0.00 | 0.00 | 58 | 1013.3 |
| 20260830221503 | 75 | 314 | 2.0 | 7.0 | 0.00 | 0.00 | 0.00 | 59 | 1013.3 |
| 20260830221003 | 75 | 305 | 2.0 | 5.0 | 0.00 | 0.00 | 0.00 | 59 | 1013.3 |
| 20260830220503 | 74 | 301 | 2.0 | 9.0 | 0.00 | 0.00 | 0.00 | 60 | 1013.3 |
| 20260830220003 | 74 | 252 | 2.0 | 9.0 | 0.00 | 0.00 | 0.00 | 60 | 1013.3 |
| 20260830215503 | 74 | 256 | 2.0 | 6.0 | 0.00 | 0.00 | 0.00 | 59 | 1013.3 |
| 20260830215024 | 74 | 309 | 2.0 | 7.0 | 0.00 | 0.00 | 0.00 | 61 | 1013.3 |
| 20260830214524 | 74 | 311 | 2.0 | 7.0 | 0.00 | 0.00 | 0.00 | 61 | 1013.3 |
| 20260830214003 | 73 | 293 | 2.0 | 7.0 | 0.00 | 0.00 | 0.00 | 61 | 1013.4 |
| 20260830213503 | 73 | 283 | 2.0 | 5.0 | 0.00 | 0.00 | 0.00 | 61 | 1013.4 |
| 20260830213003 | 73 | 273 | 2.0 | 8.0 | 0.00 | 0.00 | 0.00 | 61 | 1013.4 |
| 20260830212503 | 73 | 273 | 2.0 | 8.0 | 0.00 | 0.00 | 0.00 | 61 | 1013.4 |
| 20260830212003 | 72 | 255 | 2.0 | 7.0 | 0.00 | 0.00 | 0.00 | 62 | 1013.4 |
| 20260830211503 | 72 | 237 | 2.0 | 7.0 | 0.00 | 0.00 | 0.00 | 61 | 1013.4 |
| 20260830211003 | 72 | 244 | 2.0 | 7.0 | 0.00 | 0.00 | 0.00 | 62 | 1013.4 |
| 20260830210524 | 72 | 252 | 3.0 | 9.0 | 0.00 | 0.00 | 0.00 | 63 | 1013.4 |
| 20260830210003 | 72 | 259 | 3.0 | 9.0 | 0.00 | 0.00 | 0.00 | 62 | 1013.4 |
| 20260830205524 | 72 | 263 | 2.0 | 8.0 | 0.00 | 0.00 | 0.00 | 62 | 1013.4 |
| 20260830205003 | 72 | 263 | 2.0 | 8.0 | 0.00 | 0.00 | 0.00 | 62 | 1013.4 |
| 20260830204503 | 72 | 239 | 1.0 | 5.0 | 0.00 | 0.00 | 0.00 | 63 | 1013.4 |
| 20260830204003 | 71 | 323 | 2.0 | 5.0 | 0.00 | 0.00 | 0.00 | 63 | 1013.4 |
| 20260830203503 | 71 | 333 | 2.0 | 5.0 | 0.00 | 0.00 | 0.00 | 64 | 1013.4 |
| 20260830203024 | 70 | 300 | 2.0 | 5.0 | 0.00 | 0.00 | 0.00 | 64 | 1013.4 |
| 20260830202524 | 70 | 285 | 2.0 | 8.0 | 0.00 | 0.00 | 0.00 | 64 | 1013.4 |
| 20260830202003 | 70 | 300 | 2.0 | 8.0 | 0.00 | 0.00 | 0.00 | 65 | 1013.4 |
| 20260830201503 | 70 | 276 | 2.0 | 5.0 | 0.00 | 0.00 | 0.00 | 65 | 1013.4 |
| 20260830201024 | 70 | 290 | 2.0 | 5.0 | 0.00 | 0.00 | 0.00 | 66 | 1013.4 |
| 20260830200503 | 70 | 310 | 2.0 | 6.0 | 0.00 | 0.00 | 0.00 | 66 | 1013.4 |
| 20260830200003 | 69 | 300 | 2.0 | 6.0 | 0.00 | 0.00 | 0.00 | 66 | 1013.4 |
| 20260830195503 | 69 | 299 | 2.0 | 5.0 | 0.00 | 0.00 | 0.00 | 66 | 1013.4 |
| 20260830195003 | 69 | 309 | 1.0 | 5.0 | 0.00 | 0.00 | 0.00 | 67 | 1013.4 |
| 20260830194503 | 69 | 324 | 2.0 | 6.0 | 0.00 | 0.00 | 0.00 | 68 | 1013.4 |
| 20260830194003 | 68 | 316 | 2.0 | 6.0 | 0.00 | 0.00 | 0.00 | 69 | 1013.4 |
| 20260830193503 | 68 | 265 | 2.0 | 6.0 | 0.00 | 0.00 | 0.00 | 68 | 1013.4 |
| 20260830193003 | 68 | 236 | 2.0 | 6.0 | 0.00 | 0.00 | 0.00 | 68 | 1013.4 |
| 20260830192503 | 67 | 258 | 2.0 | 6.0 | 0.00 | 0.00 | 0.00 | 68 | 1013.4 |
| 20260830192024 | 67 | 265 | 2.0 | 6.0 | 0.00 | 0.00 | 0.00 | 70 | 1013.4 |
| 20260830191503 | 67 | 282 | 2.0 | 6.0 | 0.00 | 0.00 | 0.00 | 70 | 1013.4 |
| 20260830191003 | 67 | 342 | 2.0 | 7.0 | 0.00 | 0.00 | 0.00 | 72 | 1013.4 |
| 20260830190524 | 66 | 350 | 2.0 | 7.0 | 0.00 | 0.00 | 0.00 | 71 | 1013.4 |
| 20260830190024 | 66 | 335 | 2.0 | 7.0 | 0.00 | 0.00 | 0.00 | 72 | 1013.4 |
| 20260830185503 | 66 | 279 | 2.0 | 5.0 | 0.00 | 0.00 | 0.00 | 73 | 1013.4 |
| 20260830185003 | 65 | 253 | 2.0 | 5.0 | 0.00 | 0.00 | 0.00 | 73 | 1013.4 |
| 20260830184503 | 65 | 284 | 2.0 | 6.0 | 0.00 | 0.00 | 0.00 | 74 | 1013.4 |
| 20260830184024 | 64 | 278 | 2.0 | 6.0 | 0.00 | 0.00 | 0.00 | 75 | 1013.4 |
| 20260830183503 | 63 | 252 | 2.0 | 7.0 | 0.00 | 0.00 | 0.00 | 75 | 1013.4 |
| 20260830183003 | 63 | 254 | 3.0 | 7.0 | 0.00 | 0.00 | 0.00 | 74 | 1013.4 |
| 20260830182503 | 63 | 243 | 3.0 | 8.0 | 0.00 | 0.00 | 0.00 | 74 | 1013.4 |
| 20260830182003 | 63 | 214 | 3.0 | 8.0 | 0.00 | 0.00 | 0.00 | 75 | 1013.4 |
| 20260830181503 | 63 | 211 | 2.0 | 6.0 | 0.00 | 0.00 | 0.00 | 76 | 1013.4 |
| 20260830181024 | 63 | 231 | 3.0 | 8.0 | 0.00 | 0.00 | 0.00 | 77 | 1013.4 |
| 20260830180503 | 63 | 243 | 3.0 | 9.0 | 0.00 | 0.00 | 0.00 | 77 | 1013.4 |
| 20260830180003 | 63 | 255 | 2.0 | 9.0 | 0.00 | 0.00 | 0.00 | 77 | 1013.4 |
| 20260830175503 | 63 | 261 | 2.0 | 7.0 | 0.00 | 0.00 | 0.00 | 78 | 1013.4 |
| 20260830175003 | 62 | 286 | 2.0 | 7.0 | 0.00 | 0.00 | 0.00 | 79 | 1013.4 |
| 20260830174503 | 62 | 260 | 2.0 | 7.0 | 0.00 | 0.00 | 0.00 | 80 | 1013.4 |
| 20260830174003 | 62 | 235 | 2.0 | 7.0 | 0.00 | 0.00 | 0.00 | 80 | 1013.4 |
| 20260830173503 | 62 | 251 | 1.0 | 4.0 | 0.00 | 0.00 | 0.00 | 82 | 1013.4 |
| 20260830173003 | 61 | 235 | 2.0 | 6.0 | 0.00 | 0.00 | 0.00 | 82 | 1013.4 |
| 20260830172503 | 60 | 243 | 2.0 | 8.0 | 0.00 | 0.00 | 0.00 | 83 | 1013.4 |
| 20260830172003 | 60 | 232 | 2.0 | 8.0 | 0.00 | 0.00 | 0.00 | 84 | 1013.4 |
| 20260830171503 | 60 | 237 | 3.0 | 9.0 | 0.00 | 0.00 | 0.00 | 85 | 1013.4 |